Location: Unspecified
(0.0000°N, 0.0000°E)
Time: 23:40:47
(UTC+00:00)

Vanguard 1 - Pass Details

Date: 09 October 2020
Orbit: 649 x 3833 km, 34.3° (Epoch: 28 October)

Event Time Altitude Azimuth Distance (km) Brightness Sun altitude
Rises 04:39:09 0° 268° (W) 3,474 - -16.9°
Reaches altitude 10° 04:41:52 10° 252° (WSW) 2,809 - -16.2°
Exits shadow 04:43:08 15° 241° (WSW) 2,600 11.7 -15.9°
Maximum altitude 04:47:10 23° 201° (SSW) 2,557 12.0 -14.9°
Drops below altitude 10° 04:55:09 10° 153° (SSE) 4,377 13.8 -12.9°
Sets 05:00:54 0° 141° (SE) 6,029 14.9 -11.5°
